Content
SEND FEEDBACK

Daily
Averages
Monthly
Summary
United States of America

CHELSEA, MICHIGAN


Home > North America > United States > Michigan
Elevation: 900 feet     Latitude: 42 19N     Longitude: 084 01W

WEATHER
 
SELECT A DAY
Number of Records: 203,193;   Date Range: 1/1/95 - 7/23/14
 
SHARE

PRINT THIS DATA

[ ← Previous Day ]
WEATHER ALMANAC - SEPTEMBER 1, 2013
[ Next Day → ]
[ °C ]   °F
Weather ElementAverageHighLow
Temperature73.5 °F81 °F (4:53 pm)68 °F (2:42 am)
Dewpoint68 °F71.6 °F (4:34 pm)64.4 °F (3:40 am)
Humidity83.4 %94 % (2:42 am)69 % (4:53 pm)
Barometer29.78 in29.86 in (1:07 am)29.72 in (6:53 pm)
Wind Speed4.4 mph8.1 mph (9:53 am)
Weather ElementAverage
Visibility8.2 mi
Wind DirectionESE (108.8 °)

Weather ElementTotal
Precipitation0.08 in
Cooling Degree Days9.5 (Base 65)
Growing Degree Days24.5 (Base 50)
Averaged from 33 records on September 1, 2013
WEATHER CONDITIONS BREAKOUT
WIND DIRECTION BREAKOUT
WEATHER BY HOUR - SEPTEMBER 1, 2013
[ °C ]   °F
Local TimeTemperatureDewpointHumidityBarometerVisibilityWind DirectionWind SpeedGust SpeedPrecipitationEventsConditions
1:07 AM71.6 °F66.2 °F83 %29.86 in6.0 miEast (90°)4.6 mphOvercast
1:53 AM70.0 °F66.0 °F87 %29.83 in8.0 miENE (60°)5.8 mphOvercast
2:42 AM68.0 °F66.2 °F94 %29.84 in4.0 miENE (60°)4.6 mph0.01 inRainLight Rain
2:53 AM68.0 °F66.0 °F93 %29.82 in5.0 miNE (40°)6.9 mph0.01 inOvercast
3:40 AM68.0 °F64.4 °F88 %29.82 in5.0 miENE (60°)4.6 mph0.03 inRainLight Rain
3:53 AM68.0 °F66.0 °F93 %29.81 in6.0 miNE (40°)3.5 mph0.03 inRainLight Rain
4:53 AM68.0 °F66.0 °F93 %29.78 in7.0 miESE (120°)4.6 mphOvercast
5:53 AM68.0 °F66.0 °F93 %29.79 in7.0 miCalmOvercast
6:53 AM68.0 °F66.0 °F93 %29.80 in7.0 miCalmOvercast
7:53 AM69.1 °F66.0 °F90 %29.80 in6.0 miCalmOvercast
8:53 AM69.1 °F66.0 °F90 %29.80 in6.0 miEast (80°)3.5 mphOvercast
9:53 AM71.1 °F66.0 °F84 %29.79 in8.0 miESE (110°)8.1 mphOvercast
10:53 AM73.0 °F66.9 °F81 %29.79 in10.0 miSE (130°)5.8 mphOvercast
11:25 AM73.4 °F68.0 °F83 %29.81 in10.0 miESE (120°)4.6 mphOvercast
11:53 AM73.0 °F68.0 °F84 %29.80 in10.0 miESE (120°)5.8 mphOvercast
12:38 PM73.4 °F68.0 °F83 %29.82 in9.0 miCalmOvercast
12:53 PM75.0 °F69.1 °F82 %29.80 in9.0 miEast (80°)5.8 mphOvercast
1:16 PM75.2 °F69.8 °F83 %29.80 in9.0 miVariable3.5 mphMostly Cloudy
1:49 PM78.8 °F69.8 °F74 %29.78 in9.0 miESE (120°)8.1 mphMostly Cloudy
1:53 PM77.0 °F70.0 °F79 %29.77 in9.0 miVariable6.9 mphMostly Cloudy
2:53 PM78.1 °F70.0 °F76 %29.76 in8.0 miVariable5.8 mphOvercast
3:28 PM78.8 °F69.8 °F74 %29.77 in8.0 miSSW (200°)6.9 mphMostly Cloudy
3:53 PM80.1 °F71.1 °F74 %29.75 in9.0 miSSW (210°)6.9 mphScattered Clouds
4:34 PM80.6 °F71.6 °F74 %29.76 in10.0 miSSW (210°)3.5 mphMostly Cloudy
4:41 PM80.6 °F69.8 °F70 %29.76 in10.0 miWSW (250°)4.6 mphMostly Cloudy
4:53 PM81.0 °F70.0 °F69 %29.74 in10.0 miVariable3.5 mphMostly Cloudy
5:53 PM81.0 °F70.0 °F69 %29.73 in10.0 miSW (220°)3.5 mphPartly Cloudy
6:53 PM79.0 °F69.1 °F72 %29.72 in10.0 miSW (230°)4.6 mphClear
7:53 PM75.9 °F69.1 °F79 %29.73 in10.0 miSSW (200°)3.5 mphClear
8:53 PM71.1 °F68.0 °F90 %29.74 in10.0 miSSW (210°)3.5 mphClear
9:53 PM71.1 °F69.1 °F93 %29.75 in10.0 miSW (220°)4.6 mphClear
10:53 PM71.1 °F68.0 °F90 %29.75 in8.0 miSSW (210°)3.5 mphClear
11:53 PM71.1 °F69.1 °F93 %29.75 in7.0 miSSW (200°)4.6 mphMostly Cloudy
Hourly data recorded from KARB, located miles away from Chelsea, Michigan







STORIES FROM OUR PARTNERS